Regional Weather Roundup
Issued by NWS

Home | Current Version | Previous Version | Graphics & Text | Print | Product List | Glossary On
Versions: 1 2 3 4 5 6 7 8 9 10 11 12 13 14 15 16 17 18 19 20 21 22 23 24 25 26 27 28 29 30 31 32 33 34 35 36 37 38 39 40 41 42 43 44 45 46 47 48 49 50
752
ASUS43 KDMX 172306
RWRIA

WEATHER ROUNDUP FOR IOWA
NATIONAL WEATHER SERVICE DES MOINES IA
600 PM CDT THU AUG 17 2017

NOTE: "FAIR" INDICATES FEW OR NO CLOUDS BELOW 12,000 FEET WITH NO
SIGNIFICANT WEATHER AND/OR OBSTRUCTIONS TO VISIBILITY.

* - THESE STATIONS ARE NOT NWS STATIONS...THUS NOT UNDER NWS
QUALITY CONTROL.  THEY ALSO DO NOT REPORT WEATHER SUCH
AS PRECIPITATION OR FOG.

IAZ001>003-012>014-020>022-031>034-043>046-180000-
   NORTHWEST IOWA

CITY           SKY/WX    TMP DP  RH WIND       PRES   REMARKS
CARROLL *      SUNNY     79  61  53 NW10G18   29.88S HX  80
CHEROKEE *     SUNNY     79  58  49 NW9G20    29.89R HX  80
DENISON *      SUNNY     79  59  50 NW9G16    29.92R HX  80
LE MARS *      SUNNY     79  61  53 NW8G14    29.90R HX  80
ORANGE CITY *  SUNNY     79  63  57 W10       29.90R HX  80
SHELDON *      SUNNY     77  63  61 NW10      29.88R
SIOUX CITY     SUNNY     81  62  52 W7        29.89S HX  82
SPENCER        SUNNY     79  62  56 NW17G23   29.87R HX  80
STORM LAKE *   SUNNY     75  61  60 NW13      29.90R
$$

IAZ055>058-069>071-079>083-090>094-180000-
   SOUTHWEST IOWA

CITY           SKY/WX    TMP DP  RH WIND       PRES   REMARKS
ATLANTIC *     SUNNY     79  61  53 W10G17    29.90S HX  80
AUDUBON *      SUNNY     79  59  50 NW8G16    29.91S HX  80
CLARINDA *     SUNNY     81  61  50 W12G18    29.93S HX  81
COUNCIL BLFS * SUNNY     81  61  50 NW10      29.92S HX  81
CRESTON *      SUNNY     81  57  44 W17G25    29.91S HX  81
HARLAN  *      SUNNY     79  61  53 W13       29.94S HX  80
LAMONI         SUNNY     82  58  43 W14G24    29.89S HX  82
RED OAK *      SUNNY     81  61  50 W9        29.91S HX  81
SHENANDOAH *   SUNNY     81  61  50 W8        29.92S HX  81
$$

IAZ047>049-059>061-072>074-084-180000-
   CENTRAL IOWA

CITY           SKY/WX    TMP DP  RH WIND       PRES   REMARKS
AMES           MOSUNNY   77  65  66 NW13      29.85S
ANKENY *       SUNNY     81  61  50 W15G22    29.86R HX  81
BOONE *        MOSUNNY   79  63  57 W10G21    29.86R HX  80
CHARITON *     SUNNY     81  57  44 W16G24    29.86S HX  81
DES MOINES     MOSUNNY   82  60  47 NW17G23   29.85R HX  82
GRINNELL*      MOSUNNY   76  65  67 NW15      29.86R
KNOXVILLE *    MOSUNNY   79  59  50 NW15G22   29.84R HX  80
MARSHALLTOWN   CLOUDY    75  64  68 W15       29.84R
NEWTON *       MOSUNNY   77  64  65 NW13G23   29.85R
PELLA *        MOSUNNY   82  60  48 NW10G20   29.85S HX  82
PERRY *          N/A     78  63  58 NW10G16   29.87S HX  80
$$

IAZ004>006-015-016-023>025-035-036-180000-
   NORTH CENTRAL IOWA

CITY           SKY/WX    TMP DP  RH WIND       PRES   REMARKS
ALGONA *       MOSUNNY   77  64  65 NW13      29.85R
CLARION *      MOSUNNY   75  66  73 NW9       29.85R
ESTHERVILLE    SUNNY     76  64  66 NW14G21   29.85R
FORT DODGE *   MOSUNNY   75  63  64 NW8       29.87R
MASON CITY     PTSUNNY   73  62  68 W21       29.84R
FOREST CITY *  CLOUDY    72  63  73 NW16G23   29.84R
WEBSTER CITY * MOSUNNY   77  64  65 NW12      29.84R
IOWA FALLS *   PTSUNNY   75  65  69 W13       29.86R
$$

IAZ007>011-017>019-026>030-037>042-050>054-066-180000-
   NORTHEAST IOWA

CITY           SKY/WX    TMP DP  RH WIND       PRES   REMARKS
CEDAR RAPIDS   CLOUDY    76  63  64 W15G25    29.81R
CHARLES CITY * CLOUDY    73  64  73 W14G22    29.81R
CLINTON *      CLOUDY    75  66  73 W15G26    29.78R
DECORAH *      CLOUDY    72  64  78 W8G20     29.76R
DUBUQUE        CLOUDY    73  63  70 W15G25    29.78R
MONTICELLO *   CLOUDY    75  64  69 W12G17    29.78R
OELWEIN *      CLOUDY    73  66  78 W13G21    29.80R
WATERLOO       CLOUDY    76  62  62 W16G22    29.80R
$$

IAZ064-065-067-068-078-180000-
   EAST CENTRAL IOWA

CITY           SKY/WX    TMP DP  RH WIND       PRES   REMARKS
DAVENPORT      MOSUNNY   77  63  61 W16G24    29.81R
IOWA CITY      CLOUDY    78  65  63 W13       29.82R HX  80
MT. PLEASANT * SUNNY     81  60  48 W8        29.82S HX  81
MUSCATINE *    CLOUDY    79  63  57 W13G22    29.81S HX  80
QUAD CITIES    MOSUNNY   81  63  54 W20G30    29.79R HX  82
$$

IAZ062-063-075>077-085>089-095>099-180000-
   SOUTHEAST IOWA

CITY           SKY/WX    TMP DP  RH WIND       PRES   REMARKS
BURLINGTON     MOSUNNY   82  64  54 NW9       29.81S HX  83
FAIRFIELD *    MOSUNNY   81  59  47 NW14G23   29.83R HX  81
FORT MADISON * MOSUNNY   81  63  54 NW10G16   29.83S HX  82
KEOKUK *       SUNNY     84  57  39 W14G22    29.82S HX  83
OSKALOOSA *      N/A     80  61  52 NW16      29.84S HX  81
CENTERVILLE *    N/A     81  59  47 W9        29.88R HX  81
OTTUMWA        MOSUNNY   82  59  45 NW14G23   29.83S HX  82
WASHINGTON *   MOSUNNY   77  66  69 NW10G17   29.83S
$$

ABBREVIATIONS USED IN REMARKS
   TC - TEMPERATURES IN CELSIUS
  WCI - WIND CHILL INDEX
   HX - HEAT INDEX
  VSB - VISIBILITY
$$





USA.gov is the U.S. government's official web portal to all federal, state and local government web resources and services.